Radiation Dose at Monitoring Post of Fukushima Daini Nuclear Power Station
Date,Time,MP-1(microSv/h),MP-2(microSv/h),MP-3(microSv/h),MP-4(microSv/h),MP-5(microSv/h),MP-6(microSv/h),MP-7(microSv/h),Wind Direction,Wind Velocity(m/s),Rain
2023/07/02,00:00,0.144,0.131,0.206,0.196,0.206,0.112,0.074,northwest,1.5,No
2023/07/02,00:10,0.141,0.132,0.205,0.195,0.204,0.113,0.073,northwest,1.6,No
2023/07/02,00:20,0.144,0.132,0.205,0.195,0.205,0.112,0.074,west,0.7,No
2023/07/02,00:30,0.143,0.132,0.206,0.196,0.207,0.112,0.073,northwest,1.5,No
2023/07/02,00:40,0.141,0.132,0.205,0.196,0.205,0.112,0.073,northwest,3.3,No
2023/07/02,00:50,0.143,0.131,0.205,0.194,0.205,0.112,0.074,west-northwest,2.9,No
2023/07/02,01:00,0.143,0.131,0.205,0.197,0.207,0.112,0.073,west,1.2,No
2023/07/02,01:10,0.142,0.132,0.203,0.196,0.204,0.112,0.073,west,1.5,No
2023/07/02,01:20,0.144,0.131,0.205,0.195,0.207,0.113,0.073,west,3.3,No
2023/07/02,01:30,0.143,0.132,0.205,0.196,0.205,0.111,0.074,west-northwest,1.0,No
2023/07/02,01:40,0.142,0.131,0.204,0.195,0.205,0.112,0.073,west-northwest,1.9,No
2023/07/02,01:50,0.143,0.132,0.206,0.195,0.207,0.112,0.074,northwest,3.1,No
2023/07/02,02:00,0.143,0.132,0.205,0.196,0.206,0.111,0.074,north-northwest,2.9,No
2023/07/02,02:10,0.142,0.133,0.205,0.194,0.205,0.113,0.074,northwest,4.3,No
2023/07/02,02:20,0.143,0.132,0.206,0.197,0.207,0.112,0.074,north-northwest,3.1,Yes
2023/07/02,02:30,0.143,0.131,0.204,0.196,0.206,0.112,0.074,northwest,1.7,No
2023/07/02,02:40,0.142,0.133,0.206,0.195,0.205,0.113,0.074,north-northwest,1.9,No
2023/07/02,02:50,0.144,0.131,0.205,0.197,0.206,0.112,0.074,northwest,2.5,No
2023/07/02,03:00,0.143,0.131,0.205,0.195,0.206,0.113,0.074,north-northwest,3.3,No
2023/07/02,03:10,0.142,0.132,0.206,0.195,0.206,0.113,0.074,north-northwest,3.2,No
2023/07/02,03:20,0.143,0.133,0.204,0.196,0.208,0.113,0.073,north-northwest,3.1,No
2023/07/02,03:30,0.142,0.132,0.205,0.194,0.206,0.113,0.074,north-northwest,2.1,No
2023/07/02,03:40,0.144,0.131,0.205,0.197,0.206,0.113,0.074,north-northwest,1.6,No
2023/07/02,03:50,0.144,0.132,0.205,0.195,0.207,0.112,0.074,east,1.0,No
2023/07/02,04:00,0.143,0.133,0.206,0.196,0.205,0.114,0.075,north-northeast,2.5,No
2023/07/02,04:10,0.144,0.132,0.205,0.197,0.209,0.113,0.074,north,2.5,No
2023/07/02,04:20,0.143,0.132,0.206,0.196,0.207,0.112,0.075,northeast,2.6,No
2023/07/02,04:30,0.142,0.133,0.206,0.196,0.205,0.113,0.073,northeast,2.6,No
2023/07/02,04:40,0.144,0.132,0.205,0.196,0.208,0.112,0.073,north-northeast,2.4,No
2023/07/02,04:50,0.143,0.133,0.206,0.196,0.206,0.112,0.074,north-northeast,1.7,No
2023/07/02,05:00,0.142,0.132,0.204,0.197,0.205,0.113,0.073,northeast,1.8,No
2023/07/02,05:10,0.144,0.132,0.208,0.195,0.206,0.112,0.074,north-northeast,1.3,No
2023/07/02,05:20,0.143,0.133,0.206,0.196,0.205,0.113,0.074,northeast,1.6,No
2023/07/02,05:30,0.144,0.132,0.206,0.196,0.207,0.114,0.073,northeast,1.2,No
2023/07/02,05:40,0.143,0.133,0.205,0.194,0.207,0.112,0.074,northeast,1.0,No
2023/07/02,05:50,0.142,0.132,0.205,0.196,0.205,0.113,0.073,north-northwest,2.3,No
2023/07/02,06:00,0.144,0.132,0.206,0.196,0.206,0.112,0.074,north-northwest,1.8,No
2023/07/02,06:10,0.144,0.133,0.205,0.196,0.207,0.112,0.074,northwest,1.8,No
2023/07/02,06:20,0.143,0.131,0.205,0.197,0.204,0.113,0.074,north-northwest,1.8,No
2023/07/02,06:30,0.144,0.133,0.205,0.196,0.208,0.113,0.074,north-northwest,2.0,No
2023/07/02,06:40,0.143,0.132,0.204,0.197,0.206,0.113,0.074,north-northwest,2.2,No
2023/07/02,06:50,0.141,0.131,0.206,0.197,0.204,0.114,0.073,north-northeast,1.4,No
2023/07/02,07:00,0.144,0.132,0.207,0.194,0.207,0.114,0.074,north-northwest,2.6,No
2023/07/02,07:10,0.143,0.132,0.204,0.197,0.207,0.113,0.075,north-northwest,2.7,No
2023/07/02,07:20,0.142,0.131,0.204,0.197,0.206,0.113,0.074,north-northwest,2.6,No
2023/07/02,07:30,0.143,0.131,0.207,0.196,0.204,0.113,0.073,north,2.1,No
2023/07/02,07:40,0.144,0.132,0.207,0.194,0.206,0.112,0.073,north,2.9,No
2023/07/02,07:50,0.142,0.132,0.203,0.194,0.206,0.113,0.073,north-northeast,2.5,No
2023/07/02,08:00,0.142,0.131,0.204,0.196,0.205,0.113,0.073,north-northeast,4.6,No
2023/07/02,08:10,0.143,0.131,0.202,0.197,0.203,0.113,0.073,north-northeast,4.8,No
2023/07/02,08:20,0.143,0.130,0.203,0.194,0.204,0.112,0.073,north-northeast,3.1,No
2023/07/02,08:30,0.141,0.132,0.203,0.194,0.204,0.112,0.073,north-northeast,3.1,No
2023/07/02,08:40,0.142,0.132,0.205,0.193,0.205,0.113,0.073,northeast,2.5,No
2023/07/02,08:50,0.144,0.132,0.207,0.194,0.208,0.113,0.074,north-northeast,2.2,No
2023/07/02,09:00,0.143,0.132,0.205,0.195,0.208,0.113,0.074,northeast,2.3,No
2023/07/02,09:10,0.143,0.131,0.205,0.195,0.207,0.113,0.074,northeast,2.1,No
2023/07/02,09:20,0.140,0.131,0.205,0.196,0.207,0.113,0.072,northeast,2.3,No
2023/07/02,09:30,0.141,0.131,0.206,0.195,0.205,0.114,0.073,east-northeast,2.0,No
2023/07/02,09:40,0.142,0.132,0.205,0.197,0.206,0.114,0.073,east-northeast,1.5,No
2023/07/02,09:50,0.142,0.131,0.205,0.195,0.206,0.113,0.074,east,1.4,No
2023/07/02,10:00,0.141,0.131,0.206,0.195,0.205,0.112,0.073,east,1.4,No
2023/07/02,10:10,0.141,0.131,0.206,0.196,0.206,0.113,0.074,east-northeast,2.5,No
2023/07/02,10:20,0.143,0.131,0.205,0.196,0.206,0.114,0.074,northeast,1.2,No
2023/07/02,10:30,0.142,0.132,0.204,0.197,0.206,0.113,0.074,east,2.0,No
2023/07/02,10:40,0.142,0.133,0.206,0.195,0.206,0.112,0.074,east,2.3,No
2023/07/02,10:50,0.142,0.132,0.206,0.196,0.206,0.114,0.074,east,2.1,No
2023/07/02,11:00,0.142,0.132,0.206,0.196,0.206,0.114,0.074,east,1.7,No
2023/07/02,11:10,0.143,0.132,0.206,0.196,0.206,0.113,0.074,east,2.0,No
2023/07/02,11:20,0.142,0.132,0.204,0.197,0.206,0.113,0.074,east,2.0,No
2023/07/02,11:30,0.142,0.132,0.206,0.197,0.205,0.113,0.073,east,1.8,No
2023/07/02,11:40,0.142,0.132,0.206,0.197,0.206,0.113,0.074,east-northeast,1.5,No
2023/07/02,11:50,0.143,0.132,0.206,0.197,0.207,0.114,0.073,east,1.9,No
2023/07/02,12:00,0.143,0.132,0.205,0.196,0.206,0.113,0.074,east-southeast,2.0,No
2023/07/02,12:10,-,-,-,-,-,-,-,-,-,-
2023/07/02,12:20,0.143,0.133,0.206,0.196,0.208,0.114,0.074,east,1.4,No
2023/07/02,12:30,0.142,0.132,0.206,0.198,0.206,0.113,0.074,east,2.1,No
2023/07/02,12:40,0.142,0.132,0.206,0.197,0.207,0.114,0.074,east,1.9,No
2023/07/02,12:50,0.143,0.132,0.206,0.197,0.207,0.114,0.073,east-southeast,1.5,No
2023/07/02,13:00,0.143,0.132,0.207,0.197,0.208,0.114,0.073,east-southeast,2.3,No
2023/07/02,13:10,0.143,0.132,0.207,0.197,0.207,0.113,0.074,east-southeast,2.5,No
2023/07/02,13:20,0.142,0.133,0.207,0.198,0.207,0.114,0.073,southeast,1.5,No
2023/07/02,13:30,0.144,0.133,0.207,0.197,0.207,0.115,0.074,southeast,2.1,No
2023/07/02,13:40,0.143,0.132,0.207,0.198,0.207,0.115,0.073,-,CALM,No
2023/07/02,13:50,0.144,0.132,0.207,0.198,0.208,0.114,0.073,southeast,1.8,No
2023/07/02,14:00,0.144,0.132,0.207,0.197,0.207,0.114,0.074,south-southeast,1.3,No
2023/07/02,14:10,0.144,0.132,0.207,0.198,0.208,0.115,0.074,-,CALM,No
2023/07/02,14:20,0.143,0.132,0.208,0.198,0.208,0.114,0.074,-,CALM,No
2023/07/02,14:30,0.143,0.132,0.208,0.198,0.208,0.114,0.073,-,CALM,No
2023/07/02,14:40,0.143,0.133,0.208,0.199,0.208,0.114,0.074,south,2.0,No
2023/07/02,14:50,0.143,0.134,0.208,0.197,0.207,0.114,0.073,-,CALM,No
2023/07/02,15:00,0.144,0.133,0.207,0.198,0.208,0.114,0.074,-,CALM,No
2023/07/02,15:10,0.143,0.132,0.206,0.198,0.207,0.114,0.073,-,CALM,No
2023/07/02,15:20,0.142,0.133,0.208,0.198,0.208,0.114,0.074,south-southeast,1.5,No
2023/07/02,15:30,0.142,0.132,0.206,0.199,0.207,0.114,0.074,south-southeast,3.3,No
2023/07/02,15:40,0.142,0.133,0.207,0.198,0.208,0.114,0.074,south-southeast,3.0,No
2023/07/02,15:50,0.143,0.133,0.207,0.199,0.208,0.114,0.073,south-southeast,3.1,No
2023/07/02,16:00,0.144,0.132,0.207,0.197,0.207,0.114,0.073,south-southeast,3.1,No
2023/07/02,16:10,0.143,0.132,0.206,0.197,0.206,0.114,0.073,south-southeast,4.8,No
2023/07/02,16:20,0.143,0.132,0.206,0.196,0.206,0.115,0.073,south-southeast,4.1,No
2023/07/02,16:30,0.142,0.132,0.207,0.199,0.207,0.114,0.074,south-southeast,3.6,No
2023/07/02,16:40,0.142,0.134,0.209,0.199,0.206,0.113,0.074,south-southeast,3.4,No
2023/07/02,16:50,0.143,0.133,0.209,0.199,0.207,0.115,0.074,south-southeast,3.9,No
2023/07/02,17:00,0.144,0.133,0.208,0.199,0.210,0.113,0.074,south,3.8,No
2023/07/02,17:10,0.144,0.132,0.206,0.198,0.208,0.115,0.073,south-southeast,4.3,No
2023/07/02,17:20,0.143,0.132,0.206,0.200,0.207,0.114,0.073,south,4.2,No
2023/07/02,17:30,0.143,0.133,0.209,0.199,0.206,0.114,0.074,south-southeast,3.7,No
2023/07/02,17:40,0.142,0.134,0.209,0.199,0.207,0.113,0.074,south-southeast,2.9,No
2023/07/02,17:50,0.144,0.132,0.207,0.196,0.209,0.115,0.073,south,4.3,No
2023/07/02,18:00,0.145,0.132,0.207,0.199,0.208,0.114,0.074,south-southeast,3.0,No
2023/07/02,18:10,0.143,0.133,0.210,0.199,0.207,0.114,0.074,south-southeast,2.3,No
2023/07/02,18:20,0.142,0.133,0.208,0.199,0.207,0.114,0.074,south-southeast,2.5,No
2023/07/02,18:30,0.143,0.132,0.207,0.198,0.209,0.114,0.073,south-southeast,4.2,No
2023/07/02,18:40,0.144,0.132,0.207,0.199,0.209,0.114,0.073,south-southeast,4.0,No
2023/07/02,18:50,0.144,0.134,0.210,0.200,0.207,0.114,0.074,south-southeast,3.4,Yes
2023/07/02,19:00,0.143,0.133,0.209,0.198,0.209,0.114,0.074,south-southeast,4.3,Yes
2023/07/02,19:10,0.143,0.132,0.206,0.199,0.210,0.115,0.073,south-southeast,4.8,No
2023/07/02,19:20,0.145,0.134,0.210,0.201,0.208,0.114,0.074,south-southeast,5.0,No
2023/07/02,19:30,0.144,0.133,0.209,0.198,0.206,0.113,0.074,south-southeast,4.8,No
2023/07/02,19:40,0.143,0.132,0.207,0.198,0.210,0.114,0.074,south-southeast,5.4,No
2023/07/02,19:50,0.144,0.133,0.209,0.201,0.208,0.115,0.074,south-southeast,6.9,No
2023/07/02,20:00,0.144,0.134,0.208,0.199,0.206,0.114,0.074,south-southeast,6.6,No
2023/07/02,20:10,0.143,0.133,0.207,0.198,0.210,0.115,0.073,south,6.7,No
2023/07/02,20:20,0.144,0.133,0.210,0.199,0.207,0.115,0.073,south,5.8,No
2023/07/02,20:30,0.144,0.133,0.209,0.199,0.207,0.114,0.074,south,5.8,No
2023/07/02,20:40,0.143,0.133,0.208,0.198,0.209,0.114,0.073,south,5.3,No
2023/07/02,20:50,0.144,0.134,0.209,0.201,0.208,0.115,0.074,south,5.0,No
2023/07/02,21:00,0.145,0.132,0.207,0.199,0.207,0.113,0.074,south,5.6,No
2023/07/02,21:10,0.142,0.133,0.209,0.200,0.211,0.114,0.073,south,6.4,No
2023/07/02,21:20,0.143,0.133,0.209,0.200,0.208,0.115,0.074,south,6.2,No
2023/07/02,21:30,0.145,0.131,0.207,0.198,0.207,0.114,0.074,south,6.5,No
2023/07/02,21:40,0.144,0.133,0.210,0.200,0.211,0.114,0.074,south,5.7,No
2023/07/02,21:50,0.144,0.133,0.208,0.200,0.207,0.114,0.074,south,5.8,No
2023/07/02,22:00,0.145,0.133,0.207,0.198,0.207,0.114,0.074,south,4.7,No
2023/07/02,22:10,0.143,0.133,0.210,0.199,0.209,0.115,0.074,south-southwest,3.6,No
2023/07/02,22:20,0.144,0.132,0.208,0.201,0.208,0.114,0.074,south,3.2,No
2023/07/02,22:30,0.144,0.133,0.208,0.198,0.207,0.114,0.074,south,3.9,No
2023/07/02,22:40,0.143,0.134,0.209,0.200,0.209,0.114,0.074,south,4.9,No
2023/07/02,22:50,0.144,0.133,0.208,0.200,0.208,0.115,0.074,south,4.6,No
2023/07/02,23:00,0.144,0.134,0.209,0.198,0.207,0.115,0.074,south-southwest,4.8,No
2023/07/02,23:10,0.143,0.133,0.209,0.200,0.209,0.114,0.074,south-southwest,4.6,No
2023/07/02,23:20,0.144,0.132,0.207,0.200,0.209,0.114,0.075,south-southwest,3.9,No
2023/07/02,23:30,0.144,0.134,0.209,0.198,0.206,0.114,0.075,south-southwest,3.0,No
2023/07/02,23:40,0.143,0.133,0.209,0.200,0.211,0.114,0.074,south-southwest,3.5,No
2023/07/02,23:50,0.145,0.134,0.206,0.201,0.208,0.114,0.075,south-southwest,3.8,No
